Location: Feydey
(46.3431°N, 7.0106°E)
Time: 15:36:49
(UTC+00:00)

Terra - Pass Details

Date: 20 June 2021
Orbit: 701 x 703 km, 98.2° (Epoch: 03 August)

Event Time Altitude Azimuth Distance (km) Brightness Sun altitude
Exits shadow 20:41:02 13° 133° (SE) 1,967 3.5 -10.0°
Maximum altitude 20:44:53 39° 68° (ENE) 1,063 2.6 -10.4°
Drops below altitude 10° 20:49:17 10° 1° (N) 2,182 5.2 -10.9°
Sets 20:51:40 0° 354° (N) 3,105 6.3 -11.2°
